TimeCDT,TemperatureF,Dew PointF,Humidity,Sea Level PressureIn,VisibilityMPH,Wind Direction,Wind SpeedMPH,Gust SpeedMPH,PrecipitationIn,Events,Conditions,WindDirDegrees,DateUTC
12:53 AM,60.1,50.0,69,29.96,10.0,South,3.5,-,N/A,,Clear,180,2012-10-16 05:53:00
1:53 AM,55.0,51.1,86,29.96,10.0,Calm,Calm,-,N/A,,Clear,0,2012-10-16 06:53:00
2:53 AM,55.9,50.0,80,29.94,10.0,Calm,Calm,-,N/A,,Clear,0,2012-10-16 07:53:00
3:53 AM,53.1,50.0,89,29.91,10.0,Calm,Calm,-,N/A,,Clear,0,2012-10-16 08:53:00
4:53 AM,55.9,50.0,80,29.91,10.0,Calm,Calm,-,N/A,,Clear,0,2012-10-16 09:53:00
5:53 AM,54.0,50.0,86,29.90,10.0,South,3.5,-,N/A,,Clear,190,2012-10-16 10:53:00
6:53 AM,53.6,50.0,88,29.92,10.0,South,4.6,-,N/A,,Clear,180,2012-10-16 11:53:00
7:53 AM,55.9,52.0,87,29.93,10.0,Variable,3.5,-,N/A,,Clear,0,2012-10-16 12:53:00
8:53 AM,62.1,54.0,75,29.93,10.0,SSW,6.9,-,N/A,,Clear,210,2012-10-16 13:53:00
9:53 AM,64.0,54.0,70,29.94,10.0,SSW,9.2,-,N/A,,Clear,210,2012-10-16 14:53:00
10:53 AM,68.0,54.0,61,29.93,10.0,SSW,6.9,-,N/A,,Clear,210,2012-10-16 15:53:00
11:53 AM,72.0,54.0,53,29.92,10.0,SSW,11.5,-,N/A,,Clear,210,2012-10-16 16:53:00
12:53 PM,75.0,52.0,44,29.88,10.0,SW,11.5,18.4,N/A,,Clear,230,2012-10-16 17:53:00
1:53 PM,77.0,50.0,39,29.85,10.0,SW,16.1,25.3,N/A,,Clear,230,2012-10-16 18:53:00
2:53 PM,78.1,52.0,40,29.82,10.0,SSW,20.7,26.5,N/A,,Clear,200,2012-10-16 19:53:00
3:53 PM,75.9,50.0,40,29.81,10.0,SW,20.7,27.6,N/A,,Clear,220,2012-10-16 20:53:00
4:53 PM,75.0,51.1,43,29.78,10.0,SSW,17.3,23.0,N/A,,Clear,210,2012-10-16 21:53:00
5:53 PM,72.0,51.1,48,29.77,10.0,SSW,11.5,-,N/A,,Clear,210,2012-10-16 22:53:00
6:53 PM,66.9,51.1,57,29.77,10.0,South,8.1,-,N/A,,Clear,190,2012-10-16 23:53:00
7:53 PM,63.0,52.0,67,29.78,10.0,South,5.8,-,N/A,,Clear,170,2012-10-17 00:53:00
8:53 PM,61.0,53.1,75,29.79,10.0,South,3.5,-,N/A,,Clear,180,2012-10-17 01:53:00
9:53 PM,59.0,53.1,81,29.79,10.0,South,5.8,-,N/A,,Clear,170,2012-10-17 02:53:00
10:53 PM,57.9,53.1,84,29.79,10.0,South,6.9,-,N/A,,Clear,180,2012-10-17 03:53:00
11:53 PM,57.9,54.0,87,29.78,10.0,South,6.9,-,N/A,,Clear,170,2012-10-17 04:53:00